This is the latest recevied weather packets stored in our database for station/object KF0JJO. If no packets are shown the sender has not sent any weather packets the latest 10 day(s).
| Time | Temp. | Humidity | Pressure | Rain* | Wind** | Luminosity | Snow |
|---|---|---|---|---|---|---|---|
| 1777594548 | 10° C | 37% | 1047.2 hPa | 0 mm | - | 37 W/m² | - |
| 1777594244 | 10° C | 36% | 1047.2 hPa | 0 mm | - | 32 W/m² | - |
| 1777593940 | 10° C | 36% | 1047.2 hPa | 0 mm | - | 34 W/m² | - |
| 1777593637 | 10.56° C | 36% | 1047 hPa | 0 mm | - | 52 W/m² | - |
| 1777593333 | 10.56° C | 36% | 1047.1 hPa | 0 mm | - | 60 W/m² | - |
| 1777593027 | 10.56° C | 36% | 1047 hPa | 0 mm | - | 56 W/m² | - |
| 1777592721 | 10.56° C | 35% | 1047.2 hPa | 0 mm | - | 59 W/m² | - |
| 1777592417 | 10.56° C | 36% | 1047.1 hPa | 0 mm | - | 71 W/m² | - |
| 1777592112 | 10.56° C | 34% | 1047.1 hPa | 0 mm | - | 53 W/m² | - |
| 1777591810 | 11.11° C | 34% | 1047.2 hPa | 0 mm | - | 73 W/m² | - |
| 1777591505 | 11.11° C | 34% | 1047.1 hPa | 0 mm | - | 181 W/m² | - |
| 1777591202 | 11.11° C | 34% | 1047.3 hPa | 0 mm | - | 94 W/m² | - |
| 1777590902 | 11.11° C | 35% | 1047.3 hPa | 0 mm | - | 140 W/m² | - |
| 1777590598 | 10.56° C | 36% | 1047.3 hPa | 0 mm | - | 154 W/m² | - |
| 1777590294 | 10.56° C | 36% | 1047.3 hPa | 0 mm | - | 142 W/m² | - |
| 1777589992 | 11.11° C | 35% | 1047.4 hPa | 0 mm | - | 116 W/m² | - |
| 1777589688 | 11.11° C | 35% | 1047.3 hPa | 0 mm | - | 245 W/m² | - |
| 1777589386 | 11.11° C | 34% | 1047.5 hPa | 0 mm | - | 111 W/m² | - |
| 1777589083 | 11.11° C | 35% | 1047.4 hPa | 0 mm | - | 194 W/m² | - |
| 1777588779 | 10.56° C | 36% | 1047.4 hPa | 0 mm | - | 147 W/m² | - |
| 1777588474 | 10.56° C | 36% | 1047.5 hPa | 0 mm | - | 105 W/m² | - |
| 1777588169 | 11.11° C | 34% | 1047.4 hPa | 0 mm | - | 132 W/m² | - |
| 1777587866 | 10.56° C | 35% | 1047.6 hPa | 0 mm | - | 188 W/m² | - |
| 1777587561 | 10.56° C | 35% | 1047.3 hPa | 0 mm | - | 121 W/m² | - |
| 1777587256 | 11.11° C | 33% | 1047.4 hPa | 0 mm | - | 142 W/m² | - |
* Rain latest hour (hover to see other rain measurements)
** Current wind speed in m/s (hover to see current wind gust speed)